Hundvaag 1 weather for Jul 1998
Month no. 133
Obs.
Da.
Temp. Dew Point Precip. Wind
Speed
Wind gusts Cloud cover Press. Humidity Wind dir. Sunny OPT
01.07.1998 12,2   0,0     0       1  
02.07.1998 12,7   0,0     0       1  
03.07.1998 11,8   0,0     1          
04.07.1998 12,1   2,0     0          
05.07.1998 12,3   16,0     0       1  
06.07.1998 9,9   2,0     0       1  
07.07.1998 9,8   0,0     3       1  
08.07.1998 11,9   0,0     4          
09.07.1998 12,1   7,0     0          
10.07.1998 11,6   1,0     0       1  
11.07.1998 13,6   10,0     2          
12.07.1998 12,2   0,0     0       1  
13.07.1998 12,1   0,0     3       1  
14.07.1998 13,2   2,0     5       1  
15.07.1998 9,7   7,0     0          
16.07.1998 10,7   13,0     3       1  
17.07.1998 12,1   0,0     4       1  
18.07.1998 14,4   15,0     2       1  
19.07.1998 16,1   2,0     9       1  
20.07.1998 14,7   0,0     1          
21.07.1998 11,9   8,0     0          
22.07.1998 13,9   7,0     0          
23.07.1998 13,6   8,0     2       1  
24.07.1998 12,5   7,0     0          
25.07.1998 7,6   8,0     0          
26.07.1998 10,0   7,0     3       1  
27.07.1998 13,6   9,0     1       1  
28.07.1998 14,4   0,0     0          
29.07.1998 14,9   0,0     0       1  
30.07.1998 16,1   17,0     1       1  
31.07.1998 14,9   7,0     1       1  
Avrg/Sum 12,5   155,0     1,5       19